Время (UTC), дата Ветер
(°,м/с) 
Видим.   Явления Облачность Т
(°С)
Тd
(°С)
f(%) Тe
(°С)
Pmin
(гПа)
dP
(гПа)
Po
(мм)
O2
(г/м3)
Тmin Tmax R s Состояние
почвы
00 01.07.10 310 (СЗ) >10 км    3/0 средняя 
[Ac trans]
+18.9 +14 73 +28  1011.2  720  268           
03 01.07.10 340 (С) >10 км    4/0 верхняя 
[Ci fib]
+19.1 +15.8 81 +31  1011  -0.1  720  268           
06 01.07.10 090 (В) >10 км    6/0 верхняя 
[Ci fib]
+22.9 +16.4 67 +35  1010  -0.2  719  264  +15.7         
09 01.07.10 090 (В) >10 км    8/8 600 м 
[Cu med, cong]
+26.5 +14.7 48 +36  1009  -0.4  719  261           
12 01.07.10 030 (СВ) >10 км    6/6 600 м 
[Cu hum]
+27.4 +14.9 46 +37  1008.1  -0.7  719  260           
15 01.07.10 360 (С) >10 км  гроза, ливневой дождь  10/8 1000 м кучево-дожд., средняя 
[Cb cap|Ac und]
+20.3 +14.3 68 +29  1008.8  -0.6  718  266           
18 01.07.10 290 (З) >10 км  гроза, ливневой дождь  10/6 1000 м кучево-дожд., средняя 
[Cb cap|Ac und]
+18.1 +16.6 91 +31  1012.2  2.9  720  268    +29.4  0.0     
21 01.07.10 200 (Ю) >10 км  гроза без осадков  8/4 1000 м кучево-дожд., средняя 
[Cb calv|Ac trans]
+17 +16.5 97 +31  1010.7  -1.6  719  269           
00 02.07.10 180 (Ю) >10 км  зарница{гроза, ливн. осадки}  3/1 1000 м кучево-дожд., средняя 
[Cb cap|Ac trans]
+15.6 +14.7 94 +25  1010.6  -0.3  719  271           
03 02.07.10 тихо ()   >10 км    4/1 1000 м кучево-дожд., средняя 
[Cb cap|Ac cuf]
+17.4 +15.3 88 +28  1010.7  0.3  719  269           
06 02.07.10 060 (СВ) >10 км    6/0 средняя, верхняя 
[Ac trans|Ci fib]
+22.9 +15.2 62 +33  1010  0.4  719  264    +14.8     
09 02.07.10 100 (В) >10 км    8/3 600 м средняя, верхняя 
[Cu hum|Ac trans|Ci fib]
+24.8 +16.5 60 +37  1009.8  0.1  720  262           
12 02.07.10 160 (Ю) >10 км    8/3 1000 м средняя 
[Cu hum|Ac trans]
+27 +16.5 53 +40  1009.1  -0.3  719  260           
15 02.07.10 130 (ЮВ) >10 км  гроза, ливневой дождь  10/6 1000 м кучево-дожд., средняя 
[Cb cap|Ac und]
+18.6 +16.8 89 +32  1012.2  1.5  720  268           
18 02.07.10 250 (З) >10 км  {гроза, ливн. осадки}  8/5 1000 м кучево-дожд., средняя 
[Cb calv|Ac trans]
+18.6 +14.9 79 +29  1010.8  -1.3  719  268    +28.1       
21 02.07.10 130 (ЮВ) >10 км    8/5 1000 м кучево-дожд., средняя 
[Cb calv|Ac trans]
+19.3 +15.1 77 +30  1011.2  -0.4  720  268           
00 03.07.10 170 (Ю) >10 км    8/3 1000 м кучево-дожд., средняя 
[Cb calv|Ac trans]
+19 +14.7 76 +29  1011.9  0.7  720  268           
03 03.07.10 230 (ЮЗ) >10 км    4/0 средняя 
[Ac trans]
+19.2 +16.2 83 +32  1012.4  0.5  721  268  +18.4    0.0    влажная 
06 03.07.10 120 (ЮВ) >10 км    1/0 верхняя 
[Ci fib]
+25.2 +17.7 63 +40  1010.7  -0.5  720  262  +18.4    0.0     
09 03.07.10 030 (СВ) >10 км    3/3 600 м 
[Cu hum]
+27.6 +16.4 50 +40  1010.5  0.1  720  260           
12 03.07.10 110 (В) >10 км    6/3 600 м верхняя 
[Cu hum|Ci fib]
+29.7 +14.2 39 +38  1010  -0.2  720  259           
15 03.07.10 120 (ЮВ) >10 км    3/3 1000 м 
[Cu hum]
+29 +16.8 48 +42  1009.3  -0.7  720  258           
18 03.07.10 080 (В) >10 км    3/0 верхняя 
[Ci fib]
+24.4 +16.9 63 +38  1010.4  0.3  720  263    +30.3       
21 03.07.10 070 (В) >10 км    4/0 верхняя 
[Ci fib]
+23.9 +16.4 63 +36  1010.5  720  263           
00 04.07.10 080 (В) >10 км    3/0 верхняя 
[Ci fib]
+22.5 +15.9 66 +34  1010.6  -0.1  720  265           
03 04.07.10 210 (ЮЗ) >10 км    3/0 средняя 
[Ac trans]
+21.6 +18.4 82 +38  1011  0.3  720  265           
06 04.07.10 220 (ЮЗ) >10 км    10/5 1000 м кучево-дожд., средняя 
[Cb calv|Ac und]
+23.3 +19.2 78 +42  1011.3  0.6  721  263  +19.9         
09 04.07.10 310 (СЗ) >10 км    10/3 600 м кучево-дожд., средняя 
[Cb calv|Ac und]
+25 +18.7 68 +42  1011.1  721  262           
12 04.07.10 330 (СЗ) >10 км  в посл. час ливневой дождь  8/3 600 м кучево-дожд., средняя 
[Cb calv|Ac trans]
+23.4 +17.3 69 +38  1011.7  0.3  721  264           
15 04.07.10 040 (СВ) >10 км    3/1 600 м кучево-дожд., средняя 
[Cb calv|Ac trans]
+25.3 +16.4 58 +38  1011.1  -0.3  721  262           
18 04.07.10 100 (В) >10 км    8/1 1000 м кучево-дожд., средняя 
[Cb calv|Ac trans]
+22 +17.3 75 +36  1012  0.3  721  265    +26.2  0.0     
21 04.07.10 280 (З) >10 км    ясно 
+20.3 +18.1 87 +36  1011.9  -0.3  721  266           
00 05.07.10 100 (В) >10 км    3/0 средняя 
[Ac trans]
+18.6 +16.4 87 +32  1011.5  -0.8  720  268           
03 05.07.10 070 (В) >10 км    3/1 1000 м кучево-дожд., средняя, верхняя 
[Cb calv|Ac trans|Ci fib]
+20.5 +17.5 83 +35  1011.2  0.2  720  266           
06 05.07.10 120 (ЮВ) >10 км    4/0 средняя, верхняя 
[Ac trans|Ci fib]
+24.6 +17 63 +38  1010.3  -0.2  720  262  +18         
09 05.07.10 200 (Ю) >10 км  в посл. час ливневой дождь  8/3 1000 м кучево-дожд., средняя 
[Cb calv|Ac trans]
+24.4 +19.6 75 +44  1009.9  -0.3  720  261           
12 05.07.10 070 (В) >10 км    8/4 1000 м кучево-дожд., средняя 
[Cb calv|Ac trans]
+29.4 +17 47 +43  1008.2  -0.9  719  258           
15 05.07.10 250 (З) >10 км    10/6 1000 м кучево-дожд., средняя 
[Cb calv|Ac trans]
+33.2 +20.1 46 +54  1008.8  -0.3  719  253           
18 05.07.10 280 (З) >10 км  {гроза, ливн. осадки}  6/4 1000 м кучево-дожд., средняя 
[Cb calv|Ac trans]
+21.4 +19.7 90 +41  1008.7  -0.4  718  264    +29.6     
21 05.07.10 270 (З) >10 км  гроза, ливневой дождь  10/6 1000 м кучево-дожд., средняя 
[Cb cap|Ac und]
+20.7 +19 90 +39  1010.1  1.1  719  265           
00 06.07.10 290 (З) >10 км  гроза без осадков{ливн. осадки}  6/4 600 м кучево-дожд., средняя 
[Cb calv|Ac trans]
+18.6 +18 96 +36  1011.2  0.7  720  267           
03 06.07.10 190 (Ю) >10 км  {гроза}  3/0 средняя 
[Ac trans]
+18.9 +18.3 96 +36  1010.2  -0.9  719  267           
06 06.07.10 250 (З) >10 км  {гроза}  4/4 600 м 
[Cu med, cong]
+23.9 +19.5 76 +43  1009.3  0.1  719  262  +17.3    17     
09 06.07.10 280 (З) >10 км    8/8 800 м кучево-дожд. 
[Cb calv]
+26.6 +17.7 58 +42  1009.2  0.3  719  260           
12 06.07.10 260 (З) >10 км    6/6 900 м 
[Cu med, cong]
+28.9 +16.2 46 +41  1008.9  719  259           
15 06.07.10 240 (ЮЗ) >10 км    5/5 600 м 
[Cu med, cong]
+28 +16 48 +40  1008.7  -0.3  719  259           
18 06.07.10 270 (З) >10 км    3/0 средняя 
[Ac trans]
+24.3 +17 64 +38  1010  0.6  720  262    +29.4       
21 06.07.10 330 (СЗ) >10 км    5/0 средняя 
[Ac trans]
+23.4 +16.5 65 +36  1009.9  0.8  719  263           
00 07.07.10 080 (В) >10 км    3/0 средняя 
[Ac trans]
+21.7 +16.9 74 +35  1010.1  -0.1  719  265           
03 07.07.10 090 (В) >10 км    3/0 средняя 
[Ac trans]
+22 +17.8 77 +37  1010  -0.1  719  264           
06 07.07.10 140 (ЮВ) >10 км    ясно 
+27.6 +20.2 64 +48  1008.4  -0.5  719  258  +20.3         
09 07.07.10 210 (ЮЗ) >10 км    8/8 900 м кучево-дожд. 
[Cb calv]
+28.8 +18.4 53 +45  1008.3  719  258           
12 07.07.10 290 (З) >10 км    4/4 600 м кучево-дожд. 
[Cb calv]
+29.5 +20 57 +50  1007.6  -0.5  719  256           
15 07.07.10 050 (СВ) >10 км    8/8 900 м кучево-дожд., средняя 
[Cb calv|Ac trans]
+23.5 +20.1 81 +44  1011.5  2.8  721  262           
18 07.07.10 110 (В) >10 км    9/6 1000 м кучево-дожд., средняя 
[Cb calv|Ac trans]
+21.3 +19.9 92 +41  1011.5  0.6  721  265    +31.4       
21 07.07.10 220 (ЮЗ) >10 км    4/0 средняя 
[Ac trans]
+19.7 +17.6 88 +36  1013.6  0.7  722  267           
00 08.07.10 300 (СЗ) >10 км    3/0 средняя 
[Ac trans]
+20.8 +16.2 75 +33  1013.5  0.1  722  267           
03 08.07.10 020 (С) >10 км    3/1 1000 м средняя 
[Sc|Ac trans]
+21.1 +18.4 85 +38  1013.8  0.3  722  266           
06 08.07.10 050 (СВ) >10 км    ясно 
+25.2 +16.8 60 +38  1012.9  -0.2  722  263  +19.2         
09 08.07.10 080 (В) >10 км    4/4 600 м 
[Cu med, cong]
+27.3 +17.7 56 +42  1012.9  0.4  722  261           
12 08.07.10 060 (СВ) >10 км    8/8 600 м 
[Cu med, cong]
+28 +18.7 57 +45  1011.9  -0.8  722  259           
15 08.07.10 070 (В) >10 км    4/3 600 м средняя 
[Cu hum|Ac trans]
+27.8 +18.4 57 +44  1011.4  -0.6  721  259           
18 08.07.10 050 (СВ) >10 км    3/0 средняя 
[Ac trans]
+24.3 +17.7 67 +39  1012.1  0.1  721  263    +29.5       
21 08.07.10 050 (СВ) >10 км    3/0 средняя 
[Ac trans]
+22.8 +14.9 61 +32  1011  -1.3  720  265           
00 09.07.10 060 (СВ) >10 км    3/0 средняя 
[Ac trans]
+20 +13.9 68 +28  1010.9  -0.6  720  267           
03 09.07.10 050 (СВ) >10 км    3/0 средняя 
[Ac trans]
+21.6 +15.6 69 +33  1009.9  -0.7  719  265           
06 09.07.10 080 (В) >10 км    3/0 средняя 
[Ac trans]
+26.8 +16.1 52 +39  1008.8  -0.1  719  260  +19.8         
09 09.07.10 090 (В) 11  >10 км    4/0 средняя 
[Ac trans]
+30.7 +14.7 38 +40  1007.9  -0.3  719  257           
12 09.07.10 080 (В) >10 км    3/0 средняя 
[Ac trans]
+32.2 +13.5 32 +39  1007.2  -0.4  719  256           
15 09.07.10 060 (СВ) >10 км    3/0 средняя 
[Ac trans]
+32 +14.4 34 +41  1006.8  -0.4  718  256           
18 09.07.10 120 (ЮВ) >10 км    ясно 
+26.1 +14.4 48 +35  1007.6  -0.2  718  261    +32.9       
21 09.07.10 090 (В) >10 км    ясно 
+24.4 +14.1 53 +33  1008.8  0.8  719  263           
00 10.07.10 100 (В) >10 км    ясно 
+23 +12.3 51 +28  1009.6  0.5  719  265           
03 10.07.10 270 (З) >10 км    3/0 средняя 
[Ac trans]
+22.4 +15.4 65 +33  1009.9  0.3  719  265           
06 10.07.10 330 (СЗ) >10 км    ясно 
+27.4 +20.9 68 +50  1009.8  0.8  720  258  +22.1         
09 10.07.10 050 (СВ) >10 км    1/1 600 м 
[Cu hum]
+31.6 +15.8 39 +43  1009.6  0.4  720  257           
12 10.07.10 080 (В) >10 км    1/1 600 м 
[Cu hum]
+33 +15.6 35 +44  1009  -0.4  720  256           
15 10.07.10 210 (ЮЗ) >10 км    1/0 средняя 
[Ac trans]
+33.4 +19.5 44 +52  1008.7  -0.1  720  254           
18 10.07.10 310 (СЗ) >10 км    3/0 средняя 
[Ac trans]
+28.9 +18.3 53 +45  1009.8  0.3  720  258    +34.2       
21 10.07.10 300 (СЗ) >10 км    3/0 средняя 
[Ac trans]
+26.3 +19.3 65 +45  1010.3  0.1  720  260           
00 11.07.10 290 (З) >10 км    3/0 средняя 
[Ac trans]
+23.4 +18.3 73 +40  1010.2  -0.5  720  263           
03 11.07.10 260 (З) >10 км    3/0 средняя 
[Ac trans]
+24 +19.3 75 +43  1010.9  0.7  720  262           
06 11.07.10 280 (З) >10 км    ясно 
+30.2 +21.9 61 +55  1010.5  0.6  721  256  +22.9         
09 11.07.10 070 (В) >10 км    ясно 
+34.6 +17.8 37 +50  1009.9  0.1  721  254           
12 11.07.10 240 (ЮЗ) >10 км    3/3 600 м 
[Cu hum]
+35.6 +20.5 41 +57  1008.9  -0.7  720  252           
15 11.07.10 280 (З) >10 км    ясно 
+33.1 +20.8 48 +55  1009  -0.3  720  254           
18 11.07.10 300 (СЗ) >10 км    1/0 средняя 
[Ac trans]
+28.4 +22.5 70 +55  1010.3  0.5  720  257    +35.8       
21 11.07.10 310 (СЗ) >10 км    ясно 
+25.9 +21.5 77 +50  1011.4  0.7  721  260           
00 12.07.10 290 (З) >10 км    ясно 
+23.6 +19.9 80 +44  1011.8  -0.1  721  262           
03 12.07.10 280 (З) >10 км    8/0 средняя 
[Ac trans]
+22.4 +18.4 78 +39  1012.5  0.4  721  264           
06 12.07.10 280 (З) >10 км    8/3 1000 м средняя 
[Cu med, cong|Ac trans]
+25.6 +18.5 65 +42  1011.5  -0.4  721  261  +22.2         
09 12.07.10 260 (З) >10 км    8/3 1000 м средняя 
[Cu med, cong|Ac trans]
+28.4 +20 60 +49  1011.1  0.1  721  258           
12 12.07.10 330 (СЗ) >10 км    5/4 600 м средняя 
[Cu med, cong|Ac trans]
+30.8 +19.2 50 +49  1010.4  -0.3  721  256           
15 12.07.10 330 (СЗ) >10 км    5/4 600 м средняя 
[Cu med, cong|Ac trans]
+29.9 +18.8 51 +47  1010  -0.5  720  257           
18 12.07.10 310 (СЗ) >10 км    ясно 
+26 +18.7 64 +43  1010.3  -0.4  720  261    +31.5       
21 12.07.10 320 (СЗ) >10 км    ясно 
+24.6 +18.4 68 +41  1010  -0.5  720  262           
00 13.07.10 290 (З) >10 км    ясно 
+23.1 +17.3 70 +37  1009.7  -0.5  719  263           
03 13.07.10 320 (СЗ) >10 км    8/5 600 м кучево-дожд., средняя 
[Cb calv|Ac trans]
+23.2 +19.1 78 +41  1009.6  -0.1  719  263           
06 13.07.10 340 (С) >10 км    8/4 600 м средняя 
[Cu hum|Ac trans]
+26.1 +19.6 67 +45  1008.9  -0.2  719  260           
09 13.07.10 320 (СЗ) >10 км    6/3 600 м средняя 
[Cu med, cong|Ac trans]
+29.4 +19.5 55 +48  1007.8  -0.5  719  257           
12 13.07.10 330 (СЗ) >10 км    6/6 800 м кучево-дожд. 
[Cb calv]
+31.3 +18.5 47 +48  1006  -1.5  718  255           
15 13.07.10 150 (ЮВ) >10 км    9/5 600 м кучево-дожд., средняя 
[Cb calv|Ac trans]
+29.8 +16.8 46 +43  1005.4  -0.8  717  257           
18 13.07.10 180 (Ю) >10 км  зарница{гроза}  8/4 600 м кучево-дожд., средняя 
[Cb calv|Ac trans]
+20.4 +17.3 82 +35  1009.3  2.2  719  265    +31.8       
21 13.07.10 240 (ЮЗ) >10 км  зарница  8/4 600 м кучево-дожд., средняя 
[Cb calv|Ac trans]
+21.6 +14.7 65 +31  1006.4  -2.6  717  265           
00 14.07.10 270 (З) >10 км    6/3 600 м кучево-дожд., средняя 
[Cb calv|Ac trans]
+22.4 +17.2 72 +37  1006.3  0.1  717  263           
03 14.07.10 250 (З) >10 км  в посл. час гроза  8/4 1000 м кучево-дожд., средняя 
[Cb calv|Ac trans]
+19.8 +16.3 80 +32  1005.4  -1.3  716  265           
06 14.07.10 210 (ЮЗ) >10 км  {гроза}  10/5 1000 м кучево-дожд., средняя 
[Cb calv|Ac und]
+24.1 +18.7 72 +41  1004.7  0.1  716  261  +19.2         
09 14.07.10 220 (ЮЗ) 4000 м  гроза, ливневой дождь  10/8 210 м кучево-дожд., средняя 
[Cb cap|Ac und]
+16.9 +16.7 99 +30  1008.2  717  268           
12 14.07.10 090 (В) >10 км  {гроза, ливн. осадки}  10/5 600 м кучево-дожд., средняя 
[Cb calv|Ac und]
+22.7 +16.9 70 +36  1006.3  -0.7  717  263           
15 14.07.10 290 (З) >10 км    10/4 600 м кучево-дожд., средняя 
[Cb calv|Ac und]
+21.7 +18.7 83 +39  1006.1  -0.4  717  263           
18 14.07.10 220 (ЮЗ) >10 км    10/10 600 м 
+20.1 +18.5 91 +37  1006.7  0.3  717  265    +24.4  335     
21 14.07.10 340 (С) >10 км    8/4 1000 м кучево-дожд., средняя 
[Cb calv|Ac trans]
+18.7 +16.7 88 +33  1007.2  0.3  717  267           
00 15.07.10 230 (ЮЗ) >10 км    8/3 1000 м кучево-дожд., средняя 
[Cb calv|Ac trans]
+17.9 +16.5 92 +32  1007.2  -0.2  717  267           
03 15.07.10 070 (В) >10 км    8/3 1000 м кучево-дожд., верхняя 
[Cb calv|Ci fib]
+18.9 +17.7 93 +35  1007  717  266           
06 15.07.10 110 (В) >10 км    3/0 средняя 
[Ac trans]
+24.8 +17.6 64 +40  1006.4  0.4  717  261  +17.4         
09 15.07.10 060 (СВ) >10 км    5/3 600 м средняя 
[Cu hum|Ac trans]
+27.4 +9.7 33 +29  1006.6  0.5  718  261           
12 15.07.10 080 (В) >10 км    3/1 1000 м средняя 
[Cu hum|Ac trans]
+28.3 +9.8 31 +30  1006.2  -0.3  717  260           
15 15.07.10 020 (С) 74  0300 м    1/0 средняя 
[Ac trans]
+8.8   1006.8  0.4  718             
18 15.07.10 130 (ЮВ) >10 км    3/0 средняя 
[Ac trans]
+22.6 +9.3 43 +24  1008.5  0.9  718  266    +28.5       
21 15.07.10 020 (С) >10 км    3/0 средняя 
[Ac trans]
+19.8 +8.5 48 +20  1010.4  1.3  719  269           
00 16.07.10 170 (Ю) >10 км    ясно 
+17.6 +8.2 54 +18  1011.4  0.6  720  271           
03 16.07.10 180 (Ю) >10 км    ясно 
+17.1 +11.8 71 +24  1011.7  0.2  720  271           
06 16.07.10 090 (В) >10 км    ясно 
+23.8 +6.5 33 +24  1011.5  0.9  721  266  +15.6         
09 16.07.10 040 (СВ) >10 км    ясно 
+25.8 +9.4 35 +27  1011.5  0.3  721  264           
12 16.07.10 100 (В) >10 км    1/1 600 м 
[Cu hum]
+26.8 +8.9 32 +27  1011.4  0.1  721  263           
15 16.07.10 160 (Ю) >10 км    3/0 средняя 
[Ac trans]
+26.7 +9.3 33 +28  1011.4  721  263           
18 16.07.10 240 (ЮЗ) >10 км    ясно 
+21.7 +9.9 47 +23  1012.6  0.3  721  267    +28.8       
21 16.07.10 010 (С) 96  0400 м    1/1 300 м 
+8.8   1013.1  0.1  721             
00 17.07.10 280 (З) >10 км    ясно 
+21.3 +8.9 45 +22  1012.4  -0.3  721  268           
03 17.07.10 310 (СЗ) >10 км    ясно 
+21.1 +10 49 +23  1012.8  0.3  721  268           
06 17.07.10 100 (В) >10 км    ясно 
+26.9 +13.8 44 +35  1012.3  0.5  722  262  +19.3         
09 17.07.10 100 (В) >10 км    1/1 600 м 
[Cu hum]
+29.2 +13.2 37 +36  1011.9  0.1  722  260           
12 17.07.10 100 (В) >10 км    3/1 600 м 
[Cu hum]
+30.1 +13.8 37 +38  1017.2  -0.6  721  259           
15 17.07.10 100 (В) >10 км    3/1 1000 м верхняя 
[Cu hum|Ci fib]
+29.4 +15.2 42 +40  1010.3  -0.9  720  259           
18 17.07.10 тихо ()   >10 км    5/0 верхняя 
[Ci fib]
+25.4 +15.4 54 +36  1011.5  -0.5  721  262    +30.7       
21 17.07.10 тихо ()   >10 км    3/0 верхняя 
[Ci fib]
+23.9 +12.6 49 +30  1011.6  -0.2  721  265           
00 18.07.10 350 (С) >10 км    3/0 верхняя 
[Ci fib]
+23.9 +13.4 52 +31  1011.4  -0.2  721  264           
03 18.07.10 010 (С) >10 км    6/0 верхняя 
[Ci fib]
+23.2 +15.2 61 +33  1011.2  -0.3  720  264           
06 18.07.10 090 (В) >10 км    8/0 средняя, верхняя 
[Ac trans|Cc]
+28.8 +13.8 40 +36  1010  -0.2  720  260  +21         
09 18.07.10 050 (СВ) >10 км    8/3 600 м средняя, верхняя 
[Cu med, cong|Ac trans|Cc]
+30.5 +13.7 36 +38  1009.3  -0.4  720  258           
12 18.07.10 060 (СВ) >10 км    6/3 1000 м кучево-дожд., средняя, верхняя 
[Cb cap|Ac trans|Ci ing]
+32.2 +12.6 30 +38  1008.7  -0.3  720  257           
15 18.07.10 060 (СВ) >10 км    8/3 1000 м средняя, верхняя 
[Sc diur, vesp|Ac trans|Ci sp]
+30.2 +12.4 34 +36  1008.7  -0.3  719  259           
18 18.07.10 280 (З) >10 км    8/4 1000 м кучево-дожд., средняя, верхняя 
[Cb cap|Ac trans|Ci sp]
+25.2 +17.7 63 +40  1010.9  0.4  720  261    +32.8       
21 18.07.10 300 (СЗ) >10 км    8/4 1000 м кучево-дожд., средняя, верхняя 
[Cb cap|Ac trans|Ci sp]
+23.6 +16 62 +35  1010.3  720  263           
00 19.07.10 330 (СЗ) >10 км  слаб. ливневой дождь  10/5 1000 м кучево-дожд., средняя 
[Cb cap|Ac und]
+24.8 +14.4 52 +34  1009.4  -0.6  719  263           
03 19.07.10 310 (СЗ) >10 км  {ливн. осадки}  10/5 1000 м кучево-дожд., средняя 
[Cb cap|Ac und]
+22.6 +16 66 +34  1009.9  0.1  719  264           
06 19.07.10 260 (З) >10 км  {ливн. осадки}  10/5 1000 м кучево-дожд., средняя 
[Cb calv|Ac und]
+24 +17.9 69 +39  1009.5  719  262  +22.4    0.0     
09 19.07.10 280 (З) >10 км    8/3 1000 м кучево-дожд., средняя 
[Cb calv|Ac trans]
+28.1 +17.5 53 +43  1009.2  0.3  720  259           
12 19.07.10 340 (С) >10 км    8/3 1000 м кучево-дожд., средняя 
[Cb calv|Ac trans]
+29.8 +17.2 47 +44  1009.1  0.1  720  258           
15 19.07.10 010 (С) >10 км    8/3 1000 м кучево-дожд., средняя 
[Cb calv|Ac trans]
+30 +16.9 45 +43  1008.6  -0.4  719  257           
18 19.07.10 020 (С) >10 км    8/3 1000 м кучево-дожд., средняя 
[Cb calv|Ac trans]
+25.4 +17.4 61 +40  1009.6  0.2  719  261    +30.7       
21 19.07.10 190 (Ю) >10 км    4/0 средняя 
[Ac trans]
+23 +16.1 65 +35  1009.9  -0.1  719  264           
00 20.07.10 190 (Ю) >10 км    5/0 средняя 
[Ac trans]
+23 +16.4 66 +35  1010.3  0.3  720  264           
03 20.07.10 200 (Ю) >10 км    6/0 средняя 
[Ac trans]
+22.3 +17.4 74 +37  1010.2  -0.1  720  264           
06 20.07.10 140 (ЮВ) >10 км    3/0 средняя 
[Ac trans]
+27.3 +17.7 56 +42  1010.2  0.8  720  260  +21         
09 20.07.10 050 (СВ) >10 км    4/1 600 м средняя 
[Cu hum|Ac trans]
+30.8 +15.9 41 +42  1009.4  -0.2  720  257           
12 20.07.10 070 (В) >10 км    5/3 600 м средняя 
[Cu hum|Ac trans]
+32.2 +15.8 37 +43  1008.7  -0.5  720  256           
15 20.07.10 090 (В) >10 км    5/3 600 м средняя 
[Cu hum|Ac trans]
+31.7 +14.4 35 +40  1008.1  -0.7  719  257           
18 20.07.10 080 (В) >10 км    6/3 1000 м кучево-дожд., средняя 
[Cb calv|Ac trans]
+27.1 +14.3 45 +36  1009.2  0.4  719  261    +32.7       
21 20.07.10 090 (В) >10 км    ясно 
+24 +16.9 64 +37  1009.7  719  263           
00 21.07.10 080 (В) >10 км    4/0 средняя 
[Ac trans]
+22.3 +19.8 86 +42  1009.7  -0.2  719  263           
03 21.07.10 090 (В) >10 км    4/1 600 м средняя 
[Sc|Ac trans]
+21.6 +16.1 71 +33  1010.4  0.4  720  265           
06 21.07.10 100 (В) >10 км    3/1 600 м средняя 
[Cu hum|Ac trans]
+25 +20.2 75 +46  1009.9  0.2  720  261  +21         
09 21.07.10 090 (В) >10 км    9/1 600 м средняя 
[Cu hum|Ac trans]
+27.3 +20.3 66 +48    -0.3  719  259           
12 21.07.10 060 (СВ) >10 км    9/3 600 м кучево-дожд., средняя 
[Cb calv|Ac trans]
+27.3 +16.7 52 +40  1009.1  -0.1  719  260           
15 21.07.10 060 (СВ) >10 км    9/5 1000 м кучево-дожд., средняя 
[Cb calv|Ac trans]
+26.8 +19.6 65 +46  1008.3  -0.8  719  259           
18 21.07.10 100 (В) >10 км  слаб. ливневой дождь, в посл. час гроза  10/8 1000 м кучево-дожд., средняя 
[Cb cap|Ac und]
+22.3 +18 77 +38  1010.3  1.1  720  264    +29.4       
21 21.07.10 090 (В) >10 км  {ливн. осадки}  10/6 1000 м кучево-дожд., средняя 
[Cb calv|Ac und]
+21.7 +15.7 69 +33  1009.9  -0.6  719  265           
00 22.07.10 090 (В) >10 км  {ливн. осадки}  10/6 1000 м кучево-дожд., средняя 
[Cb calv|Ac und]
+20.8 +17 79 +34  1009.4  -0.5  719  265           
03 22.07.10 060 (СВ) >10 км    10/5 1000 м кучево-дожд., средняя 
[Cb calv|Ac und]
+19.7 +18.3 92 +36  1010  0.4  719  266           
06 22.07.10 080 (В) >10 км    8/3 1000 м кучево-дожд., средняя, верхняя 
[Cb cap|Ac trans|Ci sp]
+22.6 +19.5 83 +42  1010.6  720  263  +19.6         
09 22.07.10 080 (В) >10 км    8/3 600 м средняя, верхняя 
[Cu hum|Ac trans|Ci sp]
+26 +17.4 59 +358  1008.8  -1.2  72  21           
12 22.07.10 090 (В) 10  >10 км    8/3 600 м средняя, верхняя 
[Cu hum|Ac trans|Ci sp]
+26.8 +16.7 54 +40  1008.5  -0.1  719  260           
15 22.07.10 100 (В) >10 км    10/4 1000 м средняя 
[Sc diur, vesp|Ac und]
+23.6 +16.9 66 +37  1009.8  0.7  719  263           
18 22.07.10 100 (В) >10 км    8/4 1000 м кучево-дожд., средняя 
[Cb cap|Ac trans]
+18.8 +15.4 81 +29  1011.9  1.2  720  268    +28.7       
21 22.07.10 120 (ЮВ) >10 км    8/3 1000 м кучево-дожд., средняя 
[Cb cap|Ac trans]
+17.7 +13.2 75 +25  1011.4  -0.7  720  270           
00 23.07.10 060 (СВ) >10 км    10/3 1000 м кучево-дожд., средняя, верхняя 
[Cb cap|Ac trans|Ci sp]
+18.1 +15.9 87 +29  1010.7  -0.7  719  268           
03 23.07.10 070 (В) >10 км    10/6 1000 м средняя 
[Sc|Ac und]
+18 +15.2 84 +28  1010.8  0.2  719  269           
06 23.07.10 060 (СВ) >10 км  в посл. час дождь  10/6 600 м средняя 
[Sc|Ac und]
+16.8 +14.7 87 +26  1010.6  -0.5  719  270  +17.3         
09 23.07.10 110 (В) >10 км    8/5 1000 м средняя 
[Sc|Ac trans]
+21.9 +17.5 76 +37  1009.2  -0.3  719  264           
12 23.07.10 080 (В) >10 км    6/3 1000 м средняя 
[Cu hum|Ac trans]
+25.3 +19.2 69 +44  1007.6  -0.9  718  260           
15 23.07.10 090 (В) >10 км    8/4 1000 м средняя 
[Sc diur, vesp|Ac trans]
+25.3 +19.7 71 +45  1006.8  -0.8  718  260           
18 23.07.10 100 (В) >10 км    10/6 1000 м кучево-дожд., средняя 
[Cb calv|Ac und]
+22.1 +17 73 +36  1007.9  0.4  718  264    +25.9  0.0     
21 23.07.10 090 (В) >10 км    6/3 1000 м кучево-дожд., средняя 
[Cb calv|Ac trans]
+20.7 +12.2 58 +26  1007.7  -0.4  718  266           
00 24.07.10 070 (В) >10 км    8/0 средняя 
[Ac trans]
+19.6 +13.9 70 +28  1007.1  -0.8  717  267           
03 24.07.10 060 (СВ) >10 км    10/6 1000 м кучево-дожд., средняя 
[Cb calv|Ac und]
+19.7 +14.6 72 +29  1006.9  -0.2  717  266           
06 24.07.10 070 (В) >10 км    8/1 1000 м кучево-дожд., средняя 
[Cb calv|Ac trans]
+22.4 +11.8 51 +27  1005.6  -0.8  716  264  +19.3         
09 24.07.10 110 (В) >10 км    6/0 верхняя 
[Ci fib]
+26 +15.5 52 +37  1003.9  -0.9  716  260           
12 24.07.10 110 (В) >10 км    8/0 средняя, верхняя 
[Ac trans|Ci fib]
+27.2 +14.6 46 +36  1003.3  -0.5  715  259           
15 24.07.10 160 (Ю) >10 км    10/5 1000 м кучево-дожд., средняя 
[Cb calv|Ac und]
+25.5 +16 56 +37  1003.2  -0.3  715  260           
18 24.07.10 310 (СЗ) >10 км    10/5 1000 м кучево-дожд., средняя 
[Cb calv|Ac und]
+23 +19.2 79 +42  1004.1  0.5  715  261    +28.4       
21 24.07.10 350 (С) >10 км    10/5 1000 м кучево-дожд., средняя 
[Cb calv|Ac und]
+21.6 +18.6 83 +39  1004  -0.3  715  263           
00 25.07.10 100 (В) >10 км    6/0 средняя 
[Ac trans]
+19.2 +15.5 79 +31  1004.4  -0.1  715  266           
03 25.07.10 090 (В) >10 км    6/0 средняя 
[Ac trans]
+18.2 +15.3 83 +30  1004.4  -0.2  715  267           
06 25.07.10 150 (ЮВ) >10 км    8/0 средняя 
[Ac trans]
+22.6 +16.7 69 +36  1003.9  0.3  715  262  +18.1         
09 25.07.10 340 (С) >10 км    6/3 600 м средняя 
[Cu hum|Ac trans]
+27.9 +20 62 +48  1003.1  0.2  715  257           
12 25.07.10 060 (СВ) >10 км    5/3 1000 м средняя 
[Cu hum|Ac trans]
+29.5 +18.3 51 +46  1003.2  0.3  715  256           
15 25.07.10 110 (В) >10 км    8/3 1000 м средняя 
[Cu hum|Ac trans]
+28.2 +18.1 54 +44  1004.1  0.6  716  257           
18 25.07.10 300 (СЗ) >10 км  слаб. ливневой дождь  10/4 1000 м кучево-дожд., средняя 
[Cb cap|Ac und]
+25.3 +19.2 69 +44  1005.2  0.7  716  260    +30.8       
21 25.07.10 090 (В) >10 км  {ливн. осадки}  10/4 1000 м кучево-дожд., средняя 
[Cb calv|Ac und]
+23.5 +13.3 53 +30  1006.3  0.6  717  263           
00 26.07.10 100 (В) >10 км  {ливн. осадки}  8/8 1000 м средняя 
[Ac trans]
+20.3 +12.9 62 +27  1006.9  717  266           
03 26.07.10 090 (В) >10 км    3/0 средняя 
[Ac trans]
+19 +13.9 72 +28  1007.6  0.6  717  267           
06 26.07.10 100 (В) >10 км    3/0 средняя 
[Ac trans]
+23.3 +17.9 72 +39  1007.5  0.6  718  262  +18    0.0     
09 26.07.10 090 (В) >10 км    1/0 средняя 
[Ac trans]
+27.3 +20 64 +48  1007.4  0.6  718  258           
12 26.07.10 100 (В) >10 км    ясно 
+30.8 +18.3 47 +47  1006.5  -0.3  718  256           
15 26.07.10 120 (ЮВ) >10 км    3/0 средняя 
[Ac trans]
+31.2 +18.7 47 +48  1006.7  0.2  718  255           
18 26.07.10 100 (В) >10 км    6/0 средняя 
[Ac trans]
+27 +10.3 35 +29  1008.6  719  262    +32       
21 26.07.10 090 (В) >10 км    3/0 средняя 
[Ac trans]
+22.5 +12.1 52 +28  1009.5  0.1  719  265           
00 27.07.10 080 (В) >10 км    3/0 верхняя 
[Ci fib]
+19.8 +11.7 60 +25  1010.3  0.4  719  268           
03 27.07.10 120 (ЮВ) >10 км    1/0 верхняя 
[Ci fib]
+19.2 +14 72 +28  1011.1  0.6  720  268           
06 27.07.10 120 (ЮВ) >10 км    ясно 
+24.9 +17.4 63 +39  1009.6  -0.4  719  262  +17.4         
09 27.07.10 080 (В) >10 км    ясно 
+29.4 +16.7 46 +42  1009.4  0.5  720  258           
12 27.07.10 140 (ЮВ) >10 км    ясно 
+32.3 +17.7 42 +47  1008.8  -0.1  720  255           
15 27.07.10 090 (В) >10 км    ясно 
+32.2 +18.4 44 +49  1008.5  -0.2  720  255           
18 27.07.10 090 (В) >10 км    ясно 
+27 +18.2 59 +43  1009.3  720  260    +33.2       
21 27.07.10 090 (В) >10 км    ясно 
+22.6 +10.2 45 +25  1010.7  0.4  720  266           
00 28.07.10 070 (В) >10 км    ясно 
+20.1 +9.9 52 +22  1010.3  -0.9  719  268           
03 28.07.10 150 (ЮВ) >10 км    ясно 
+19.1 +12.5 66 +27  1011.2  0.8  720  269           
06 28.07.10 110 (В) >10 км    ясно 
+25.4 +12.4 44 +31  1009.9  -0.2  720  263  +18         
09 28.07.10 100 (В) >10 км    ясно 
+30.3 +16.9 45 +44  1008.5  -0.4  719  257           
12 28.07.10 100 (В) >10 км    ясно 
+33.7 +13.9 30 +42  1007.2  -0.8  719  255           
15 28.07.10 110 (В) >10 км    ясно 
+33.2 +15.2 34 +43  1006.2  -1  718  255           
18 28.07.10 090 (В) >10 км    ясно 
+26.4 +17.1 57 +40  1007.3  718  260    +34.3       
21 28.07.10 110 (В) >10 км    ясно 
+24.2 +13.2 50 +31  1008.3  0.5  718  263           
00 29.07.10 110 (В) >10 км    ясно 
+21.6 +13.2 59 +28  1008.1  -0.6  718  265           
03 29.07.10 130 (ЮВ) >10 км    ясно 
+20.4 +14.6 69 +30  1008.9  0.6  718  266           
06 29.07.10 020 (С) 66  0500 м    1/1 50 м 
+13.8   1008.9  719    +20.1         
09 29.07.10 130 (ЮВ) >10 км    ясно 
+31.9 +10.6 27 +35  1008.4  0.3  719  258           
12 29.07.10 100 (В) >10 км    ясно 
+34.5 +8 20 +35  1007.8  -0.2  719  256           
15 29.07.10 130 (ЮВ) >10 км    ясно 
+33.4 +13 29 +40  1008.1  0.2  719  256           
18 29.07.10 120 (ЮВ) >10 км    ясно 
+25.3 +11.9 43 +30  1011.4  1.8  721  263    +34.9       
21 29.07.10 140 (ЮВ) >10 км    ясно 
+23.3 +9.3 41 +24  1013.1  1.3  722  266           
00 30.07.10 120 (ЮВ) >10 км    ясно 
+20.5 +9 48 +21  1013.4  -0.2  722  269           
03 30.07.10 130 (ЮВ) >10 км    ясно 
+19.5 +14.3 72 +28  1014.3  0.7  722  269           
06 30.07.10 120 (ЮВ) >10 км    ясно 
+25.1 +13.3 48 +32  1013.2  0.3  722  264  +18.6         
09 30.07.10 090 (В) >10 км    ясно 
+30.6 +9 26 +31  1012.3  -0.4  722  260           
12 30.07.10 100 (В) >10 км  пыльный позёмок  ясно 
+32 +13.9 33 +40  1012.3  0.3  722  258           
15 30.07.10 100 (В) 4000 м  пыльный позёмок  ясно 
+31.4 +15.2 38 +41  1012  -0.4  722  258           
18 30.07.10 090 (В) >10 км    ясно 
+25.9 +16.7 57 +39  1013.3  0.4  722  262    +33       
21 30.07.10 100 (В) >10 км    ясно 
+23.6 +8 37 +24  1014.5  0.6  723  267           
00 31.07.10 090 (В) >10 км    ясно 
+19.6 +9.4 52 +21  1015.4  0.2  723  270           
03 31.07.10 090 (В) >10 км    ясно 
+18.3 +12 67 +23  1016.3  0.7  723  271           
06 31.07.10 100 (В) >10 км    ясно 
+26.1 +12.7 43 +32  1015.5  0.6  724  264  +18.2         
09 31.07.10 090 (В) >10 км    ясно 
+31.2 +11.1 29 +35  1014.6  -0.1  724  260           
12 31.07.10 100 (В) >10 км    ясно 
+33.8 +6.8 19 +34  1014  -0.2  724  258           
15 31.07.10 110 (В) >10 км    ясно 
+32.5 +5.9 19 +33  1013.7  -0.5  723  259           
18 31.07.10 100 (В) >10 км    ясно 
+26.2 +5.9 27 +26  1015.7  0.8  724  265    +34       
21 31.07.10 100 (В) >10 км    ясно 
+21.6 +5 34 +22  1016.3  -0.2  724  269           
00 01.08.10 090 (В) >10 км    ясно 
+21.2 +5.6 36 +21  1015.6  -0.7  723  269           
03 01.08.10 070 (В) >10 км    ясно 
+20.9 +6.2 38 +21  1015.7  -0.1  723  270           
Время (UTC), дата Ветер
(°,м/с) 
Видим.   Явления Облачность Т
(°С)
Тd
(°С)
f(%) Тe
(°С)
Pmin
(гПа)
dP
(гПа)
Po
(мм)
O2
(г/м3)
Тmin Tmax R s Состояние
почвы